Location: Firdgum
(53.2488°N, 5.5615°E)
Time: 04:31:27
(UTC+00:00)

ATLAS CENTAUR R/B - Pass Details

Date: 08 December 2019
Orbit: 454 x 694 km, 64.6° (Epoch: 20 January)

Event Time Altitude Azimuth Distance (km) Brightness Sun altitude
Exits shadow 04:21:13 19° 20° (NNE) 1,450 3.6 -28.1°
Drops below altitude 10° 04:23:43 10° 55° (NE) 1,909 4.7 -27.7°
Sets 04:26:23 0° 73° (ENE) 2,756 6.0 -27.3°
